[Date Prev][Date Next][Thread Prev][Thread Next] - [Date Index][Thread Index][Author Index]

2 Line ISS Keps 2-16



ISS
1 25544U 98067A   03047.15636574  .00028357  00000-0  36939-3 0  6941
2 25544  51.6345 268.0963 0012405 207.6956 287.3306 15.58418200242121


----
Via the sarex mailing list at AMSAT.ORG courtesy of AMSAT-NA.
To unsubscribe, send "unsubscribe sarex" to Majordomo@amsat.org



AMSAT Top AMSAT Home